STARLINK-30063 (55713 NORAD) Tracking and Keplerian Element Data

This shows tracking and keplerian element data for the satellite.

Feedback or suggestion? Click here.




ElementValue
Catalog55713
NameSTARLINK-30063
Epoch Orbit130
Epoch Day62.91667824
Epoch Year2023
RAAN259.6028
Inclination43.0106
Eccentricity0.0001529
Argument of Perigee278.16
Mean Anonmoly187.2304
Mean Motion15.67011688
Decay Rate-0.00664313
L11 55713U 23026U 23062.91667824 -.00664313 00000+0 -65663-2 0 9992
L22 55713 43.0106 259.6028 0001529 278.1600 187.2304 15.67011688 1302



Live tracking and technical data element details for STARLINK-30063 (NORAD 55713). STARLINK-30063 can be tracked NOW for your location showing map with azimuth and elevation plus other details from your city location.







IsCatalogInMostPopularTable: catalog: 55713, numindb: 4
Update: records affected: 1



GetName: 55713 STARLINK-30063

Hit Count: updated at: Wed, 22 Mar 2023 17:17:00 GMT